This is the latest recevied weather packets stored in our database for station/object KD0SBN. If no packets are shown the sender has not sent any weather packets the latest 10 day(s).
| Time | Temp. | Humidity | Pressure | Rain* | Wind** | Luminosity | Snow |
|---|---|---|---|---|---|---|---|
| 1777942809 | 20° C | 35% | 1005.7 hPa | 0 mm | - | - | - |
| 1777942506 | 20° C | 35% | 1005.9 hPa | 0 mm | - | - | - |
| 1777942203 | 20.56° C | 34% | 1005.8 hPa | 0 mm | - | - | - |
| 1777941900 | 20.56° C | 33% | 1005.9 hPa | 0 mm | - | - | - |
| 1777941597 | 21.11° C | 32% | 1005.6 hPa | 0 mm | - | - | - |
| 1777941294 | 21.11° C | 32% | 1005.5 hPa | 0 mm | - | - | - |
| 1777940990 | 21.11° C | 32% | 1005.5 hPa | 0 mm | - | - | - |
| 1777940686 | 21.11° C | 31% | 1005.5 hPa | 0 mm | - | - | - |
| 1777940385 | 21.67° C | 31% | 1005.5 hPa | 0 mm | - | - | - |
| 1777940082 | 21.67° C | 30% | 1005.3 hPa | 0 mm | - | - | - |
| 1777939779 | 21.67° C | 30% | 1005.6 hPa | 0 mm | - | - | - |
| 1777939477 | 21.67° C | 30% | 1005.6 hPa | 0 mm | - | - | - |
| 1777939174 | 22.22° C | 30% | 1005.3 hPa | 0 mm | - | - | - |
| 1777938871 | 22.22° C | 30% | 1005.3 hPa | 0 mm | - | - | - |
| 1777938567 | 22.22° C | 29% | 1005.6 hPa | 0 mm | - | - | - |
| 1777938265 | 22.22° C | 30% | 1005.5 hPa | 0 mm | - | - | - |
| 1777937961 | 22.22° C | 29% | 1005.5 hPa | 0 mm | - | - | - |
| 1777937657 | 22.78° C | 29% | 1005.3 hPa | 0 mm | - | - | - |
| 1777937354 | 22.78° C | 29% | 1005.6 hPa | 0 mm | - | - | - |
| 1777937051 | 22.78° C | 29% | 1005.2 hPa | 0 mm | - | - | - |
| 1777936748 | 22.78° C | 30% | 1005.2 hPa | 0 mm | - | - | - |
| 1777936444 | 23.33° C | 29% | 1005.2 hPa | 0 mm | - | - | - |
| 1777936141 | 25° C | 25% | 1005.2 hPa | 0 mm | - | - | - |
| 1777935838 | 24.44° C | 22% | 1005.2 hPa | 0 mm | - | - | - |
| 1777935536 | 24.44° C | 22% | 1004.9 hPa | 0 mm | - | - | - |
* Rain latest hour (hover to see other rain measurements)
** Current wind speed in m/s (hover to see current wind gust speed)